STARLINK-3508, 51862

Orbit data source: Space-Track

STARLINK-3508, 51862 is a payload satellite owned by SpaceX/Seattle (US) in LEO that was launched on Thu, 03 Mar 2022 UTC via an FALCON 9 launch vehicle from the Air Force Eastern Test Range (AFETR). Payload-class satellites include a variety of spacecraft equipped with specific instruments for various scientific and technological missions. These include communications satellites like Starlink; space stations such as the ISS; scientific satellites like the Hubble; Earth observation satellites from companies like Planet Labs, Umbra, and HawkEye 360; GPS; miniature CubeSats for education and research; and military/defense satellites.

Loading next visibility...
Identifier
51862, 2022-022L
Orbit
LEO
Country
Flag of USUS
Related business
Manufacturer
SpaceX/Seattle
Mission
Operational Commercial Communications
Bus & Motor
STARLINK, Unknown motor
Mass
297 kg wet, ~275 kg dry
Launch date (UTC)
2022-03-03 (4 years ago)
Launch vehicle
FALCON 9
Launch site
Air Force Eastern Test Range (AFETR)
Object type
Payload
Rocket body
Debris
Shape & HBR
Box + 1 Pan, 10.1 m
Radar Cross Section
13.562 m², Large (>1 m²)

Expand to show TLE details & history
Last TLE update: 3 days ago

TLE from 3 days ago
0 STARLINK-3508
1 51862U 22022L   26170.60203729  .00000218  00000-0  31786-4 0  9995
2 51862  53.1608 271.5071 0001077  77.3338 282.7773 15.08835353238556
Epoch: 2026-06-19T14:26Z
TLE epoch observation values (Epoch: 2026-06-19T14:26:56.021Z)
Latitude
-0.00011°
Longitude
146.94494°
Altitude
540.484 km
Speed
7.593 km/s
True Right ascension
18h 06m 01s
True Declination
0° 00' 00"
Sunlit
Object was in full shadow at epoch
Visualization orbit readout
Latitude
Unknown
Longitude
Unknown
Altitude
Unknown
Speed
Unknown
Apparent Right ascension
Unknown
Apparent Declination
Unknown
Sunlit
N/A
Visualization observer readout
Local Sidereal Time
21:33:30
Azimuth
Unknown
Elevation
Unknown
Doppler factor
Unknown
Orbital elements
Apogee altitude
540.757 km
Perigee altitude
539.266 km
Semi-major axis
6,918.149 km
Eccentricity
0.00011
Inclination
53.1608°
RAAN
271.5071°
Arg. of periapsis
77.3338°
True anomaly
282.76526°
Mean anomaly
282.7773°
Eccentric anomaly
282.77128°
Mean motion
3.77188 °/min
Orbital period
95.44 mins
BSTAR
0.000031786
Loading maneuver chart data...
Computing Atmospheric mass density...
Loading historical data...
Loading historical data...
Loading historical data...
Loading historical data...
Loading historical data...
Loading historical data...
Loading historical data...

Documentation

Showing up to 5 results
|